Weather History for KGJT - February, 2013

Change the Weather History Date:

Saturday, February 2, 2013

  Actual Average Record
Temperature  
Mean Temperature 33 °F 30 °F  
Max Temperature 44 °F 41 °F 59 °F (2003)
Min Temperature 22 °F 20 °F -15 °F (1917)
Degree Days  
Heating Degree Days 32 35  
Month to date heating degree days 66 70  
Since 1 July heating degree days 3909 3596  
Cooling Degree Days 0 0  
Month to date cooling degree days 0 0  
Year to date cooling degree days 0 0  
Moisture  
Dew Point 26 °F    
Average Humidity 73    
Maximum Humidity 100    
Minimum Humidity 45    
Precipitation  
Precipitation 0.00 in 0.01 in 0.29 in (2003)
Month to date precipitation 0.00 0.03  
Year to date precipitation 0.61 0.61  
Snow  
Snow 0.00 in 0.20 in 3.70 in (1903)
Month to date snowfall 0.0 0.3  
Since 1 July snowfall 14.4 12.6  
Snow Depth 0.00 in    
Sea Level Pressure  
Sea Level Pressure 30.47 in    
Wind  
Wind Speed 4 mph (ESE)    
Max Wind Speed 13 mph    
Max Gust Speed 14 mph    
Visibility 10 miles    
Events      
T = Trace of Precipitation, MM = Missing Value Source: NWS Daily Summary

Daily Weather History Graph

Daily Weather History Graph

Search for Another Location

Airport or City:

Trip Planner

Search our weather history database for the weather conditions in past years. The results will help you decide how hot, cold, wet, or windy it might be!

Date:

Astronomy

Feb. 02, 2013 Rise Set
Actual Time 7:19 AM MST 5:36 PM MST
Civil Twilight 6:51 AM MST 6:04 PM MST
Nautical Twilight 6:19 AM MST 6:36 PM MST
Astronomical Twilight 5:48 AM MST 7:08 PM MST
Moon No Moon Rise 10:35 AM MST (2/2)
Length of Visible Light 11h 13m
Length of Day
10h 17m
Waning Gibbous, 59% of the Moon is Illuminated
Feb 2
Waning Gibbous
Feb 3
Last Quarter
Feb 10
New
Feb 17
First Quarter
Feb 25
Full

Hourly Weather History & Observations

Time (MST) Temp. Windchill Dew Point Humidity Pressure Visibility Wind Dir Wind Speed Gust Speed Precip Events Conditions
12:53 AM 28.0 °F 20.0 °F 25.0 °F 88% 30.43 in 10.0 mi East 8.1 mph - N/A   Clear
1:53 AM 28.4 °F 24.6 °F 24.8 °F 86% 30.40 in 10.0 mi West 3.5 mph - N/A   Clear
2:53 AM 25.0 °F 20.7 °F 24.1 °F 96% 30.47 in 7.0 mi East 3.5 mph - N/A   Clear
3:53 AM 25.0 °F - 23.0 °F 92% 30.46 in 10.0 mi Calm Calm - N/A   Clear
4:53 AM 24.8 °F 19.1 °F 21.2 °F 86% 30.42 in 10.0 mi SSE 4.6 mph - N/A   Clear
5:53 AM 24.1 °F - 21.9 °F 91% 30.52 in 10.0 mi Calm Calm - N/A   Clear
6:53 AM 24.1 °F - 23.0 °F 96% 30.52 in 10.0 mi Calm Calm - N/A   Clear
7:53 AM 23.0 °F 17.0 °F 21.9 °F 96% 30.56 in 10.0 mi East 4.6 mph - N/A   Clear
8:53 AM 28.0 °F 19.3 °F 24.1 °F 85% 30.56 in 10.0 mi ESE 9.2 mph - N/A   Clear
9:53 AM 32.0 °F 23.0 °F 23.0 °F 69% 30.55 in 10.0 mi SSE 11.5 mph - N/A   Clear
10:53 AM 35.1 °F 29.3 °F 25.0 °F 67% 30.55 in 10.0 mi SE 6.9 mph - N/A   Clear
11:53 AM 37.9 °F 30.5 °F 24.1 °F 57% 30.51 in 10.0 mi SSE 11.5 mph - N/A   Clear
12:53 PM 41.0 °F 35.2 °F 25.0 °F 53% 30.47 in 10.0 mi SE 9.2 mph - N/A   Clear
1:53 PM 42.1 °F 39.2 °F 23.0 °F 47% 30.43 in 10.0 mi SSE 4.6 mph - N/A   Clear
2:53 PM 44.1 °F - 24.1 °F 45% 30.43 in 10.0 mi Calm Calm - N/A   Clear
3:53 PM 42.1 °F 37.7 °F 30.9 °F 65% 30.43 in 10.0 mi NW 6.9 mph - N/A   Clear
4:53 PM 37.9 °F 34.4 °F 30.9 °F 76% 30.43 in 10.0 mi NNW 4.6 mph - N/A   Clear
5:53 PM 34.0 °F 31.0 °F 30.0 °F 85% 30.45 in 10.0 mi North 3.5 mph - N/A   Clear
6:53 PM 32.0 °F - 30.0 °F 92% 30.46 in 10.0 mi Calm Calm - N/A   Clear
7:53 PM 30.9 °F - 28.9 °F 92% 30.47 in 10.0 mi Calm Calm - N/A   Clear
8:53 PM 32.0 °F 27.5 °F 28.0 °F 85% 30.45 in 10.0 mi NW 4.6 mph - N/A   Clear
9:53 PM 30.9 °F - 28.0 °F 89% 30.43 in 10.0 mi Calm Calm - N/A   Clear
10:53 PM 30.9 °F - 28.0 °F 89% 30.41 in 10.0 mi Calm Calm - N/A   Clear
11:53 PM 28.9 °F - 27.0 °F 92% 30.40 in 10.0 mi Calm Calm - N/A   Clear